Simultaneous Nadir Overpasses (SNOs) Predictions

Prediction of SNOs between GOES-14 and AQUA Satellite Orbit:

Table of predicted SNOs for the next 14.0 days since TLE Epoch: 2/8/2019
Index Date Time (GOES-14) GOES-14 Lat,Lon AQUA Lat,Lon Distance(km) Time Diff (sec)
1 02/09/2019 08:29:45 0.02,-104.35 -0.21,-103.20 130.79 80
2 02/09/2019 20:51:09 -0.02,-104.14 -0.95,-108.38 482.82 80
3 02/11/2019 08:17:34 0.02,-104.38 -0.83,-100.24 469.65 80
4 02/11/2019 20:38:58 -0.02,-104.16 -0.32,-105.42 144.14 80
5 02/13/2019 20:24:07 -0.03,-104.18 0.31,-102.46 194.37 80
6 02/14/2019 08:45:23 0.03,-104.40 0.74,-107.63 367.63 80
7 02/16/2019 08:33:12 0.03,-104.42 0.10,-104.67 29.51 80
8 02/18/2019 08:23:41 0.04,-104.43 -0.53,-101.72 308.59 80
9 02/18/2019 20:45:05 -0.04,-104.22 -0.61,-106.90 304.20 80
10 02/20/2019 20:30:14 -0.04,-104.24 0.03,-103.94 33.98 80
11 02/22/2019 20:18:03 -0.04,-104.26 0.68,-100.99 372.46 80




NCC Satellite Simultaneous Nadir Overpasses (SNOs) Prediction Service
